[[{"header":{"parameterUnit":"m.s-1","parameterCategory":1,"la1":30.2991,"la2":30.254,"lo1":-89.0895,"lo2":-89.0444,"dy":0.0017,"dx":0.0017,"nx":28,"ny":28,"refTime":"2023-05-28T21:00:00:Z","depth":0,"parameterNumber":2,"parameterNumberName":"U-component_of_WINDS"},"data":[0,0,0,0,0,0,0,0,0,0,0,0,0,0,0,0,0,0,0,0,0,0,0,0,0,0,0,0,0,0,0,0,0,0,0,0,0,0,0,0,0,0,0,0,0,0,0,0,0,0,0,0,0,0,0,0,0,0,0.4619,0.462,0,0.4738,0.4739,0.4741,0.4786,0.4786,0.4786,0.4785,0.4913,0.4916,0.492,0,0,0,0,0,0,0,0,0,0,0,0,0,0.4436,0.4439,0.4619,0.462,0.4622,0.4738,0.4739,0.4741,0.4786,0.4786,0.4786,0.4785,0.4911,0.4916,0.492,0,0,0,0,0,0,0,0,0,0,0,0,0,0.4531,0.444,0.4618,0.4658,0.4663,0.4737,0.4739,0.4741,0.4787,0.4786,0.4785,0.4785,0.491,0.4915,0.4921,0.4966,0,0,0.4938,0.494,0,0,0,0,0,0,0,0,0.4526,0.4538,0.4651,0.4655,0.4661,0.4747,0.4722,0.4817,0.4787,0.474,0.4785,0.4785,0.4858,0.4868,0.4892,0.4972,0.4977,0.4938,0.4942,0.4944,0.4946,0,0,0,0,0,0,0,0.4519,0.4533,0.4666,0.4652,0.4659,0.4672,0.4685,0.474,0.4801,0.4744,0.4747,0.4761,0.4861,0.4886,0.4895,0.4979,0.4938,0.4943,0.4947,0.4949,0.5105,0.5106,0,0,0,0,0,0,0.4505,0.4527,0.4662,0.467,0.459,0.4676,0.469,0.472,0.48,0.4812,0.4761,0.4762,0.4877,0.4888,0.49,0.4959,0.4944,0.4949,0.4952,0.5104,0.5105,0.5106,0,0,0,0,0,0,0.4501,0.4517,0.4657,0.4599,0.4618,0.4679,0.4712,0.4722,0.4748,0.4813,0.4825,0.4775,0.4877,0.4892,0.4949,0.4964,0.4952,0.4957,0.5103,0.5104,0.5105,0.5077,0,0,0,0,0,0,0.4495,0.4515,0.4531,0.4599,0.4621,0.4703,0.4713,0.4725,0.4757,0.4759,0.483,0.4841,0.4878,0.4941,0.4955,0.4972,0.4961,0.5102,0.5104,0.5105,0.5077,0.5078,0.5078,0,0,0,0,0,0.4489,0.4519,0.4532,0.4548,0.4643,0.4704,0.4717,0.4757,0.4757,0.4776,0.4818,0.4838,0.496,0.4946,0.4962,0.4981,0.5101,0.5103,0.5105,0.5077,0.5078,0.5078,0,0,0,0,0,0,0.4453,0.4529,0.4544,0.4597,0.4643,0.4711,0.4735,0.4756,0.4804,0.4805,0.4855,0.487,0.4924,0.4959,0.4942,0.503,0.5032,0.5037,0.5006,0.5007,0.5007,0.4998,0.4966,0,0,0,0,0,0.4451,0.4492,0.4557,0.4598,0.4621,0.4674,0.4702,0.4729,0.478,0.48,0.4847,0.4897,0.4947,0.4978,0.5028,0.5082,0.5099,0.5103,0.5104,0.5103,0.5108,0.5141,0.5144,0.5112,0.5112,0.5112,0,0,0.4448,0.4494,0.4518,0.4592,0.4631,0.4675,0.469,0.4736,0.4769,0.4808,0.4865,0.4901,0.496,0.5017,0.5044,0.5047,0.512,0.5106,0.5105,0.511,0.5143,0.5146,0.5149,0.5113,0.5113,0.5113,0,0,0.4465,0.4503,0.4542,0.4581,0.464,0.4675,0.4684,0.475,0.4775,0.4832,0.4862,0.4904,0.4988,0.5029,0.5062,0.5095,0.5117,0.511,0.5111,0.5143,0.5146,0.5148,0.5162,0.5166,0.5113,0.5113,0.5113,0,0.4454,0.4519,0.456,0.4604,0.4637,0.4672,0.4713,0.4749,0.4822,0.4844,0.4846,0.4953,0.4995,0.5063,0.5071,0.5095,0.5109,0.5102,0.5142,0.5145,0.5148,0.5161,0.5166,0.5112,0.5112,0.5113,0.5113,0,0.4504,0.4549,0.4574,0.4641,0.4677,0.4719,0.4768,0.4799,0.4823,0.4859,0.4918,0.497,0.5031,0.5049,0.5074,0.5121,0.5121,0.5131,0.5135,0.5149,0.5162,0.5168,0.5111,0.5111,0.5111,0.5112,0,0,0.4501,0.4591,0.46,0.4631,0.4699,0.4736,0.4781,0.4839,0.4866,0.4915,0.4955,0.5025,0.5036,0.5072,0.5102,0.5129,0.5155,0.5137,0.5139,0.514,0.5212,0.5204,0.5209,0.5169,0.517,0.5171,0.5207,0,0.4528,0.4608,0.4646,0.471,0.4754,0.4788,0.4828,0.4875,0.4909,0.4953,0.4992,0.5042,0.5051,0.5073,0.5102,0.5145,0.517,0.5143,0.5209,0.5211,0.5194,0.5216,0.5209,0.524,0.5213,0.5214,0.5214,0,0.457,0.4618,0.4685,0.4749,0.4769,0.4803,0.4861,0.4901,0.4956,0.4979,0.502,0.5049,0.5099,0.5098,0.517,0.5151,0.518,0.5205,0.5208,0.5216,0.5214,0.5227,0.5251,0.5257,0.5223,0.5222,0.5222,0,0.4563,0.4644,0.4696,0.4722,0.4797,0.4821,0.4854,0.4908,0.4941,0.4991,0.5014,0.507,0.5101,0.5145,0.5189,0.5184,0.5257,0.5259,0.528,0.5279,0.5294,0.5293,0.5325,0.5311,0.5311,0.5311,0.531,0,0.459,0.463,0.4694,0.4725,0.4773,0.4817,0.4863,0.4899,0.4947,0.4988,0.5022,0.5059,0.5115,0.516,0.5195,0.525,0.5264,0.5285,0.5295,0.5283,0.528,0.5304,0.5303,0.5312,0.5312,0.5311,0.5311,0,0.459,0.4634,0.4693,0.4759,0.4777,0.4809,0.4867,0.49,0.4936,0.4988,0.5003,0.506,0.5116,0.5164,0.5237,0.5261,0.5318,0.5328,0.5299,0.5304,0.5322,0.532,0.5371,0.5381,0.5359,0.5359,0.5359,0,0.4604,0.4636,0.4706,0.4735,0.4767,0.4813,0.4847,0.4893,0.4927,0.4992,0.5018,0.5076,0.5124,0.5211,0.5261,0.5318,0.5331,0.5345,0.534,0.5328,0.5333,0.5331,0.5335,0.5345,0.5345,0.5345,0.5345,0,0.4626,0.4646,0.4692,0.4747,0.4786,0.4831,0.4878,0.49,0.4955,0.4992,0.5048,0.5086,0.5161,0.5218,0.528,0.5317,0.5341,0.5346,0.5354,0.5344,0.5326,0.5337,0.53,0.5345,0.5345,0.5345,0.5345,0.5345,0.4635,0.4665,0.4719,0.477,0.481,0.4853,0.4888,0.4928,0.4976,0.5039,0.5064,0.5122,0.5178,0.5263,0.53,0.5347,0.5351,0.5362,0.5365,0.5368,0.5367,0.5317,0.5358,0.5359,0.5359,0.5359,0.5359,0,0.4659,0.4696,0.4742,0.4806,0.4847,0.4864,0.4917,0.495,0.5,0.505,0.5096,0.5162,0.5218,0.5272,0.5332,0.536,0.5372,0.5374,0.5373,0.5381,0.5359,0.5347,0.5363,0.5363,0.5363,0.5363,0.5363,0.5363,0.4677,0.473,0.4757,0.483,0.4867,0.4923,0.4952,0.4993,0.5032,0.5104,0.515,0.5184,0.5237,0.53,0.5353,0.5368,0.5389,0.5387,0.5405,0.5384,0.5383,0.5382,0.5371,0.5391,0.5391,0.5424,0.5424,0.5425]},{"header":{"parameterUnit":"m.s-1","parameterCategory":1,"la1":30.2991,"la2":30.254,"lo1":-89.0895,"lo2":-89.0444,"dy":0.0017,"dx":0.0017,"nx":28,"ny":28,"refTime":"2023-05-28T21:00:00:Z","depth":0,"parameterNumber":3,"parameterNumberName":"V-component_of_WINDS"},"data":[0,0,0,0,0,0,0,0,0,0,0,0,0,0,0,0,0,0,0,0,0,0,0,0,0,0,0,0,0,0,0,0,0,0,0,0,0,0,0,0,0,0,0,0,0,0,0,0,0,0,0,0,0,0,0,0,0,0,1.0261,1.0261,0,1.0271,1.0271,1.0271,1.0235,1.0234,1.0232,1.0231,1.0241,1.0243,1.0244,0,0,0,0,0,0,0,0,0,0,0,0,0,1.021,1.0211,1.0261,1.0261,1.0262,1.0271,1.0271,1.0271,1.0235,1.0234,1.0232,1.0231,1.0241,1.0242,1.0244,0,0,0,0,0,0,0,0,0,0,0,0,0,1.0227,1.0211,1.0261,1.0245,1.0243,1.0271,1.0271,1.0271,1.0235,1.0233,1.0232,1.023,1.024,1.0242,1.0244,1.0288,0,0,1.025,1.0251,0,0,0,0,0,0,0,0,1.0226,1.0229,1.0247,1.0246,1.0244,1.025,1.0256,1.0277,1.0236,1.0238,1.0231,1.023,1.0245,1.0247,1.0252,1.0289,1.0289,1.025,1.0251,1.0252,1.0253,0,0,0,0,0,0,0,1.0225,1.0229,1.0265,1.0247,1.0246,1.0236,1.0237,1.026,1.0251,1.0238,1.0235,1.0237,1.0244,1.0251,1.0252,1.029,1.025,1.0252,1.0253,1.0254,1.0359,1.0361,0,0,0,0,0,0,1.0226,1.0228,1.0265,1.0265,1.0231,1.0238,1.0239,1.025,1.025,1.0249,1.0238,1.0235,1.0248,1.025,1.0252,1.0301,1.0252,1.0254,1.0255,1.0358,1.036,1.0361,0,0,0,0,0,0,1.0225,1.023,1.0264,1.0246,1.0249,1.0241,1.0253,1.0251,1.0257,1.0251,1.0249,1.0246,1.0247,1.025,1.0279,1.0301,1.0255,1.0257,1.0356,1.0358,1.036,1.0402,0,0,0,0,0,0,1.0224,1.023,1.0247,1.0247,1.0251,1.0291,1.0255,1.0252,1.026,1.0256,1.0258,1.0256,1.0246,1.0276,1.0281,1.0303,1.0258,1.0354,1.0357,1.036,1.0398,1.0405,1.0411,0,0,0,0,0,1.0222,1.0259,1.0248,1.0253,1.0272,1.0293,1.0295,1.0282,1.0262,1.0279,1.0274,1.0256,1.0299,1.028,1.0284,1.0308,1.0352,1.0356,1.0359,1.0395,1.0404,1.0411,0,0,0,0,0,0,1.0263,1.0259,1.0247,1.0284,1.0289,1.0287,1.0307,1.0292,1.0303,1.0299,1.0282,1.0283,1.0314,1.0314,1.0293,1.0349,1.0322,1.0327,1.0347,1.0355,1.0362,1.036,1.026,0,0,0,0,0,1.0277,1.0294,1.0289,1.0323,1.0326,1.0316,1.0325,1.0314,1.0319,1.032,1.0318,1.0323,1.0337,1.0347,1.0359,1.0399,1.0397,1.0417,1.0423,1.0429,1.0432,1.045,1.0458,1.0374,1.0374,1.0374,0,0,1.0305,1.0304,1.0316,1.0331,1.0333,1.0351,1.0318,1.0339,1.0351,1.0324,1.035,1.0349,1.0353,1.0386,1.0401,1.0387,1.0455,1.0433,1.0438,1.0438,1.0454,1.0462,1.0469,1.0376,1.0376,1.0375,0,0,1.0363,1.0366,1.0393,1.0395,1.0399,1.0392,1.0399,1.0398,1.0396,1.0422,1.0401,1.0415,1.0441,1.0443,1.0448,1.0505,1.0488,1.051,1.0543,1.0561,1.0567,1.0573,1.059,1.0597,1.0514,1.0515,1.0515,0,1.0397,1.0423,1.0409,1.0429,1.0435,1.0411,1.0437,1.044,1.0448,1.0452,1.0437,1.0466,1.0467,1.0499,1.0513,1.0519,1.0524,1.0509,1.0567,1.0573,1.0578,1.0595,1.0602,1.0517,1.0517,1.0516,1.0516,0,1.0463,1.0481,1.0502,1.0508,1.0517,1.0541,1.0529,1.0539,1.0528,1.0522,1.0548,1.0548,1.0559,1.0567,1.0556,1.0596,1.0587,1.057,1.0542,1.0589,1.0604,1.061,1.052,1.052,1.0519,1.0518,0,0,1.0547,1.0544,1.0552,1.0553,1.0555,1.0568,1.059,1.06,1.0608,1.0614,1.063,1.0651,1.0634,1.064,1.0629,1.0645,1.0686,1.0625,1.0625,1.0634,1.0727,1.0738,1.0746,1.0676,1.0677,1.0678,1.0726,0,1.0602,1.0638,1.0625,1.0662,1.0676,1.0653,1.0671,1.0673,1.0669,1.068,1.0675,1.0688,1.0667,1.0669,1.0684,1.0678,1.0704,1.0675,1.0688,1.0689,1.0685,1.0754,1.0766,1.0811,1.0732,1.0733,1.0734,0,1.0671,1.0678,1.0716,1.0712,1.0718,1.0735,1.0741,1.0753,1.0755,1.075,1.0755,1.074,1.076,1.0734,1.0759,1.0739,1.0744,1.0742,1.0743,1.0742,1.0712,1.0752,1.0826,1.0831,1.0743,1.0743,1.0742,0,1.0725,1.0745,1.0768,1.0771,1.0768,1.078,1.0779,1.0779,1.0785,1.0791,1.0794,1.0803,1.0807,1.0814,1.0802,1.0784,1.0828,1.0801,1.0822,1.0823,1.0831,1.083,1.0904,1.0839,1.0839,1.0839,1.0838,0,1.0786,1.0809,1.0792,1.0807,1.0831,1.0816,1.0841,1.0837,1.0837,1.085,1.0831,1.0843,1.0827,1.0838,1.0829,1.0849,1.0852,1.0847,1.0844,1.0848,1.0848,1.0849,1.0844,1.084,1.084,1.084,1.0839,0,1.085,1.0839,1.0863,1.0858,1.0857,1.0875,1.087,1.0883,1.0876,1.0892,1.0895,1.0885,1.0896,1.0885,1.0896,1.0889,1.0916,1.091,1.0915,1.0912,1.0933,1.093,1.1008,1.1016,1.0948,1.0949,1.095,0,1.0888,1.0905,1.0901,1.0907,1.0907,1.0919,1.0925,1.091,1.0916,1.0918,1.093,1.0939,1.0946,1.0964,1.0957,1.0965,1.0957,1.0983,1.0958,1.0959,1.0953,1.0951,1.0952,1.0988,1.0989,1.0989,1.099,0,1.0956,1.095,1.0958,1.0964,1.0971,1.0975,1.0978,1.0985,1.0969,1.0977,1.0988,1.0993,1.1003,1.1011,1.1017,1.1015,1.0999,1.0998,1.1003,1.1005,1.1006,1.1003,1.0926,1.0996,1.0995,1.0995,1.0995,1.0994,1.1006,1.1019,1.1017,1.1026,1.1026,1.1029,1.104,1.1034,1.1042,1.1049,1.104,1.1052,1.1051,1.1056,1.1056,1.1065,1.1054,1.1061,1.1063,1.1064,1.1066,1.1007,1.1066,1.1066,1.1066,1.1066,1.1066,0,1.107,1.1068,1.1076,1.108,1.1087,1.1072,1.1074,1.108,1.1091,1.1091,1.1097,1.1108,1.1116,1.111,1.1116,1.1124,1.1116,1.1126,1.1123,1.1123,1.1077,1.1071,1.1131,1.1131,1.1131,1.1131,1.1131,1.1131,1.1104,1.1124,1.1117,1.1136,1.1133,1.1144,1.1146,1.1148,1.1148,1.116,1.1166,1.1162,1.1159,1.1164,1.117,1.1168,1.117,1.1181,1.1176,1.1133,1.1126,1.112,1.1114,1.1182,1.1182,1.122,1.1221,1.1221]}]]